• In Portugal
  • List of Countries
  • For 7 days
  • Water Temperature
  • Satellite Maps
  • Weather Map
  • Weather Widgets
  • user-avatar
    Login

    Hourly Weather Darkhan

    Today, 20 February, Tuesday

    Time Temperature Precipitation Wind Pressure Humidity
    00:00 -23°C° 0 mm 2 mps 691 mmHg 89%
    01:00 -24°C° 0 mm 2 mps 691 mmHg 89%
    02:00 -24°C° 0 mm 2 mps 691 mmHg 88%
    03:00 -24°C° 0 mm 2 mps 691 mmHg 88%
    04:00 -25°C° 0 mm 2 mps 691 mmHg 87%
    05:00 -25°C° 0 mm 2 mps 691 mmHg 87%
    06:00 -25°C° 0 mm 2 mps 691 mmHg 86%
    07:00 -24°C° 0 mm 2 mps 691 mmHg 84%
    08:00 -21°C° 0 mm 2 mps 691 mmHg 83%
    09:00 -20°C° 0 mm 2 mps 691 mmHg 81%
    10:00 -18°C° 0 mm 2 mps 691 mmHg 79%
    11:00 -17°C° 0 mm 2 mps 691 mmHg 78%
    12:00 -16°C° 0 mm 2 mps 691 mmHg 76%
    13:00 -15°C° 0 mm 2 mps 690 mmHg 75%
    14:00 -15°C° 0 mm 2 mps 690 mmHg 78%
    15:00 -15°C° 0 mm 2 mps 690 mmHg 81%
    16:00 -16°C° 0 mm 2 mps 689 mmHg 84%
    17:00 -17°C° 0 mm 2 mps 689 mmHg 84%
    18:00 -19°C° 0 mm 2 mps 689 mmHg 85%
    19:00 -20°C° 0 mm 2 mps 689 mmHg 85%
    20:00 -20°C° 0 mm 2 mps 689 mmHg 85%
    21:00 -23°C° 0 mm 3 mps 689 mmHg 84%
    22:00 -23°C° 0 mm 3 mps 689 mmHg 84%
    23:00 -23°C° 0 mm 3 mps 689 mmHg 84%

    Tomorrow, 21 February, Wednesday

    Time Temperature Precipitation Wind Pressure Humidity
    00:00 -23°C° 0 mm 3 mps 689 mmHg 85%
    01:00 -23°C° 0 mm 3 mps 688 mmHg 85%
    02:00 -23°C° 0 mm 3 mps 688 mmHg 85%
    03:00 -24°C° 0 mm 3 mps 688 mmHg 85%
    04:00 -24°C° 0 mm 3 mps 687 mmHg 85%
    05:00 -24°C° 0 mm 3 mps 687 mmHg 85%
    06:00 -24°C° 0 mm 3 mps 687 mmHg 85%
    07:00 -23°C° 0 mm 2 mps 687 mmHg 85%
    08:00 -22°C° 0 mm 3 mps 687 mmHg 83%
    09:00 -21°C° 0 mm 3 mps 687 mmHg 81%
    10:00 -18°C° 0 mm 3 mps 687 mmHg 79%
    11:00 -17°C° 0 mm 3 mps 686 mmHg 78%
    12:00 -16°C° 0 mm 3 mps 686 mmHg 77%
    13:00 -15°C° 0 mm 3 mps 685 mmHg 76%
    14:00 -15°C° 0 mm 3 mps 685 mmHg 79%
    15:00 -14°C° 0 mm 2 mps 684 mmHg 81%
    16:00 -14°C° 0 mm 2 mps 684 mmHg 84%
    17:00 -15°C° 0 mm 2 mps 684 mmHg 84%
    18:00 -17°C° 0 mm 2 mps 684 mmHg 84%
    19:00 -18°C° 0 mm 2 mps 684 mmHg 84%
    20:00 -18°C° 0 mm 2 mps 684 mmHg 84%
    21:00 -18°C° 0 mm 2 mps 684 mmHg 85%
    22:00 -18°C° 0 mm 2 mps 684 mmHg 85%
    23:00 -19°C° 0 mm 2 mps 683 mmHg 85%

    Day after tomorrow, 22 February, Thursday

    Time Temperature Precipitation Wind Pressure Humidity
    00:00 -19°C° 0 mm 2 mps 683 mmHg 86%
    01:00 -19°C° 0 mm 2 mps 682 mmHg 86%
    02:00 -20°C° 0 mm 2 mps 682 mmHg 86%
    03:00 -20°C° 0 mm 2 mps 682 mmHg 86%
    04:00 -21°C° 0 mm 2 mps 681 mmHg 86%
    05:00 -21°C° 0 mm 2 mps 681 mmHg 86%
    06:00 -19°C° 0 mm 1 mps 681 mmHg 86%
    07:00 -20°C° 0 mm 1 mps 681 mmHg 86%
    08:00 -18°C° 0 mm 1 mps 681 mmHg 84%
    09:00 -16°C° 0 mm 1 mps 681 mmHg 81%
    10:00 -14°C° 0 mm 1 mps 682 mmHg 79%
    11:00 -13°C° 0 mm 1 mps 681 mmHg 78%
    12:00 -12°C° 0 mm 1 mps 681 mmHg 77%
    13:00 -11°C° 0 mm 1 mps 681 mmHg 75%
    14:00 -11°C° 0 mm 1 mps 681 mmHg 78%
    15:00 -12°C° 0 mm 1 mps 681 mmHg 81%
    16:00 -12°C° 0 mm 1 mps 681 mmHg 84%
    17:00 -13°C° 0 mm 1 mps 682 mmHg 85%
    18:00 -15°C° 0 mm 1 mps 682 mmHg 85%
    19:00 -16°C° 0 mm 1 mps 682 mmHg 86%
    20:00 -17°C° 0 mm 1 mps 683 mmHg 85%
    21:00 -17°C° 0 mm 1 mps 683 mmHg 85%
    22:00 -17°C° 0 mm 1 mps 683 mmHg 85%
    23:00 -18°C° 0 mm 1 mps 684 mmHg 85%

    23 February, Friday

    Time Temperature Precipitation Wind Pressure Humidity
    00:00 -18°C° 0 mm 1 mps 684 mmHg 86%
    01:00 -18°C° 0 mm 1 mps 684 mmHg 86%
    02:00 -19°C° 0 mm 1 mps 685 mmHg 86%
    03:00 -19°C° 0 mm 1 mps 685 mmHg 87%
    04:00 -19°C° 0 mm 1 mps 685 mmHg 87%
    05:00 -19°C° 0 mm 1 mps 685 mmHg 87%
    06:00 -19°C° 0 mm 1 mps 685 mmHg 86%
    07:00 -21°C° 0 mm 2 mps 686 mmHg 86%
    08:00 -20°C° 0 mm 2 mps 686 mmHg 83%
    09:00 -18°C° 0 mm 2 mps 686 mmHg 81%
    10:00 -16°C° 0 mm 2 mps 686 mmHg 78%
    11:00 -15°C° 0 mm 2 mps 686 mmHg 76%
    12:00 -13°C° 0 mm 2 mps 686 mmHg 75%
    13:00 -12°C° 0 mm 2 mps 685 mmHg 73%
    14:00 -12°C° 0 mm 2 mps 685 mmHg 76%
    15:00 -12°C° 0 mm 2 mps 685 mmHg 79%
    16:00 -10°C° 0 mm 1 mps 685 mmHg 82%
    17:00 -12°C° 0 mm 1 mps 686 mmHg 83%
    18:00 -13°C° 0 mm 1 mps 686 mmHg 83%
    19:00 -15°C° 0 mm 1 mps 686 mmHg 84%
    20:00 -15°C° 0 mm 1 mps 686 mmHg 84%
    21:00 -15°C° 0 mm 1 mps 687 mmHg 84%
    22:00 -17°C° 0 mm 2 mps 687 mmHg 84%
    23:00 -17°C° 0 mm 2 mps 687 mmHg 84%

    24 February, Saturday

    Time Temperature Precipitation Wind Pressure Humidity
    00:00 -18°C° 0 mm 2 mps 686 mmHg 84%
    01:00 -18°C° 0 mm 2 mps 686 mmHg 84%
    02:00 -18°C° 0 mm 2 mps 686 mmHg 84%
    03:00 -18°C° 0 mm 2 mps 686 mmHg 84%
    04:00 -18°C° 0 mm 2 mps 686 mmHg 84%
    05:00 -15°C° 0 mm 1 mps 686 mmHg 85%
    06:00 -15°C° 0 mm 1 mps 686 mmHg 85%
    07:00 -14°C° 0 mm 1 mps 686 mmHg 85%
    08:00 -13°C° 0 mm 1 mps 686 mmHg 84%
    09:00 -11°C° 0 mm 1 mps 686 mmHg 82%
    10:00 -10°C° 0 mm 1 mps 686 mmHg 80%
    11:00 -9°C° 0 mm 1 mps 685 mmHg 79%
    12:00 -8°C° 0 mm 1 mps 685 mmHg 77%
    13:00 -8°C° 0 mm 2 mps 685 mmHg 75%
    14:00 -7°C° 0 mm 1 mps 684 mmHg 78%
    15:00 -7°C° 0 mm 1 mps 684 mmHg 81%
    16:00 -7°C° 0 mm 1 mps 684 mmHg 83%
    17:00 -9°C° 0 mm 1 mps 684 mmHg 83%
    18:00 -10°C° 0 mm 1 mps 684 mmHg 84%
    19:00 -12°C° 0 mm 1 mps 684 mmHg 84%
    20:00 -12°C° 0 mm 1 mps 684 mmHg 83%
    21:00 -12°C° 0 mm 1 mps 684 mmHg 83%
    22:00 -13°C° 0 mm 1 mps 684 mmHg 83%
    23:00 -13°C° 0 mm 1 mps 683 mmHg 83%

    25 February, Sunday

    Time Temperature Precipitation Wind Pressure Humidity
    00:00 -13°C° 0 mm 1 mps 683 mmHg 83%
    01:00 -14°C° 0 mm 1 mps 683 mmHg 82%
    02:00 -14°C° 0 mm 1 mps 682 mmHg 82%
    03:00 -15°C° 0 mm 1 mps 682 mmHg 82%
    04:00 -15°C° 0 mm 1 mps 682 mmHg 82%
    05:00 -15°C° 0 mm 1 mps 682 mmHg 82%
    06:00 -15°C° 0 mm 1 mps 682 mmHg 82%
    07:00 -15°C° 0 mm 1 mps 682 mmHg 82%
    08:00 -13°C° 0 mm 0 mps 682 mmHg 80%
    09:00 -12°C° 0 mm 0 mps 682 mmHg 77%
    10:00 -10°C° 0 mm 0 mps 682 mmHg 75%
    11:00 -9°C° 0 mm 0 mps 682 mmHg 75%
    12:00 -8°C° 0 mm 0 mps 681 mmHg 74%
    13:00 -7°C° 0 mm 0 mps 681 mmHg 74%
    14:00 -7°C° 0.1 mm 0 mps 681 mmHg 78%
    15:00 -7°C° 0.1 mm 1 mps 680 mmHg 82%
    16:00 -7°C° 0.1 mm 1 mps 680 mmHg 87%
    17:00 -9°C° 0.1 mm 1 mps 680 mmHg 89%
    18:00 -10°C° 0.1 mm 1 mps 680 mmHg 91%
    19:00 -11°C° 0.1 mm 1 mps 681 mmHg 93%
    20:00 -12°C° 0 mm 1 mps 681 mmHg 94%
    21:00 -12°C° 0 mm 1 mps 681 mmHg 94%
    22:00 -13°C° 0 mm 1 mps 681 mmHg 95%
    23:00 -13°C° 0.1 mm 1 mps 681 mmHg 95%
    Show more